GW4228 Weather Reports


Display with metric or nautical units.
time (UTC)temp
F
wind
direction
speed
MPH
gust
MPH
rain 1hr
in
rain 24hr
in
rain mn
in
humidity
%
barometer
mb
20260507061007 50 240 0.0 5.0 0.00 0.35 0.00 87 1006.8
20260507060504 50 28 0.0 2.0 0.00 0.35 0.00 88 1006.8
20260507060004 50 350 0.0 2.0 0.00 0.35 0.00 88 1006.8
20260507055503 50 212 0.0 2.0 0.00 0.35 0.00 88 1006.8
20260507055003 50 211 0.0 2.0 0.00 0.35 0.00 88 1006.9
20260507054508 51 160 0.0 4.0 0.00 0.35 0.00 88 1006.8
20260507054003 51 271 0.0 4.0 0.00 0.35 0.00 87 1006.8
20260507053505 51 178 0.0 4.0 0.00 0.35 0.00 87 1006.5
20260507053014 51 302 0.0 4.0 0.00 0.35 0.00 88 1006.8
20260507052508 51 255 0.0 2.0 0.00 0.35 0.00 88 1006.8
20260507052008 51 311 0.0 2.0 0.00 0.35 0.00 87 1006.8
20260507051529 51 227 0.0 2.0 0.00 0.35 0.00 87 1006.5
20260507051005 51 284 0.0 3.0 0.00 0.35 0.00 87 1006.4
20260507050506 51 346 1.0 3.0 0.00 0.35 0.00 87 1006.5
20260507050023 52 123 0.0 3.0 0.00 0.35 0.00 88 1006.5
20260507045507 52 268 1.0 3.0 0.00 0.35 0.00 88 1006.7
20260507045004 52 265 0.0 5.0 0.00 0.35 0.00 88 1006.6
20260507044509 52 303 0.0 5.0 0.00 0.35 0.00 88 1006.7
20260507044004 52 59 1.0 5.0 0.00 0.35 0.00 89 1006.9
20260507043504 53 51 0.0 2.0 0.00 0.35 0.00 88 1007.0
20260507043012 53 63 0.0 2.0 0.00 0.35 0.00 88 1006.9
20260507042506 53 350 0.0 2.0 0.00 0.35 0.00 88 1006.7
20260507042004 53 270 0.0 2.0 0.00 0.35 0.00 88 1006.6
20260507041520 53 9 0.0 3.0 0.00 0.35 0.00 88 1006.6
20260507041008 53 318 0.0 3.0 0.00 0.35 0.00 88 1006.6
20260507040508 53 105 1.0 3.0 0.00 0.35 0.00 88 1006.5
20260507040021 54 284 0.0 2.0 0.00 0.35 0.00 89 1006.7
20260507035507 54 254 0.0 3.0 0.00 0.35 0.35 88 1006.5
20260507035006 54 323 1.0 5.0 0.00 0.35 0.35 89 1006.3
20260507034537 54 32 1.0 5.0 0.00 0.35 0.35 89 1006.2
20260507034007 55 323 1.0 4.0 0.00 0.35 0.35 90 1006.3
20260507033504 56 294 1.0 4.0 0.00 0.35 0.35 90 1006.3
20260507033012 56 20 2.0 4.0 0.00 0.35 0.35 91 1006.3
20260507032505 57 292 1.0 4.0 0.00 0.35 0.35 91 1006.6
20260507032006 57 321 1.0 3.0 0.00 0.35 0.35 92 1006.6
20260507031515 58 64 1.0 3.0 0.00 0.35 0.35 92 1006.4
20260507031002 58 320 0.0 5.0 0.00 0.35 0.35 92 1006.3
20260507030502 58 51 1.0 8.0 0.00 0.35 0.35 92 1006.1
20260507030003 58 323 1.0 8.0 0.00 0.35 0.35 92 1006.1
20260507025502 59 9 1.0 2.0 0.00 0.35 0.35 92 1006.0
20260507025003 59 321 0.0 2.0 0.00 0.35 0.35 92 1006.0
20260507024504 59 127 0.0 2.0 0.00 0.35 0.35 92 1005.8
20260507024004 59 277 0.0 6.0 0.00 0.35 0.35 92 1005.7
20260507023508 59 190 1.0 6.0 0.00 0.35 0.35 92 1005.6
20260507023008 59 227 0.0 3.0 0.00 0.35 0.35 92 1005.6
20260507022505 59 214 0.0 5.0 0.00 0.35 0.35 92 1005.7
20260507022006 59 192 1.0 5.0 0.00 0.35 0.35 92 1005.7
20260507021515 59 153 1.0 6.0 0.00 0.35 0.35 92 1005.7
20260507021007 59 149 0.0 6.0 0.00 0.35 0.35 92 1005.7
20260507020507 59 176 1.0 2.0 0.00 0.35 0.35 92 1005.9
20260507020004 59 182 0.0 2.0 0.00 0.35 0.35 92 1006.0
20260507015506 59 188 1.0 3.0 0.00 0.35 0.35 92 1006.0
20260507015002 59 224 1.0 3.0 0.00 0.35 0.35 92 1006.0
20260507014506 59 166 0.0 4.0 0.00 0.35 0.35 92 1006.1
20260507014004 59 122 0.0 4.0 0.00 0.35 0.35 92 1006.1
20260507013504 59 183 1.0 4.0 0.00 0.35 0.35 92 1006.2
20260507013008 59 130 1.0 4.0 0.00 0.35 0.35 92 1006.1
20260507012504 59 115 2.0 4.0 0.00 0.35 0.35 92 1006.0
20260507012002 59 162 1.0 3.0 0.00 0.35 0.35 92 1006.2
20260507011531 59 257 0.0 2.0 0.00 0.35 0.35 92 1006.2
20260507011005 59 158 0.0 2.0 0.00 0.35 0.35 92 1006.2
20260507010506 59 147 0.0 8.0 0.00 0.35 0.35 92 1006.2
20260507010019 59 179 1.0 8.0 0.00 0.35 0.35 92 1006.2
20260507005507 59 150 1.0 7.0 0.00 0.35 0.35 92 1006.2
20260507005006 59 146 1.0 7.0 0.01 0.35 0.35 92 1006.0
20260507004503 59 132 2.0 6.0 0.01 0.35 0.35 92 1006.2
20260507004005 59 202 2.0 5.0 0.01 0.35 0.35 92 1006.2
20260507003504 59 113 1.0 4.0 0.01 0.35 0.35 92 1006.1
20260507003015 59 190 0.0 4.0 0.02 0.35 0.35 92 1006.1
20260507002503 59 203 1.0 4.0 0.02 0.35 0.35 92 1006.1
20260507002003 59 148 1.0 3.0 0.03 0.35 0.35 92 1005.9
20260507001512 59 166 0.0 3.0 0.03 0.35 0.35 92 1006.0
20260507001004 59 180 0.0 9.0 0.03 0.35 0.35 92 1005.8
20260507000507 59 178 0.0 9.0 0.03 0.35 0.35 92 1005.8
20260507000016 59 149 2.0 9.0 0.03 0.35 0.35 92 1005.7
20260506235507 59 138 0.0 4.0 0.03 0.35 0.35 92 1005.8
20260506235007 59 192 0.0 7.0 0.02 0.34 0.34 92 1005.8
20260506234520 59 196 1.0 7.0 0.03 0.34 0.34 92 1005.8
20260506234011 59 146 0.0 5.0 0.03 0.34 0.34 92 1005.4
20260506233508 59 88 1.0 5.0 0.03 0.34 0.34 92 1005.5
20260506233004 59 178 2.0 8.0 0.02 0.33 0.33 92 1005.6
20260506232505 59 100 1.0 8.0 0.02 0.33 0.33 92 1005.6
20260506232003 59 165 1.0 4.0 0.01 0.32 0.32 92 1005.8
20260506231509 59 212 0.0 4.0 0.01 0.32 0.32 92 1005.9
20260506231005 59 187 0.0 4.0 0.01 0.32 0.32 92 1005.8
20260506230505 60 128 0.0 8.0 0.01 0.32 0.32 92 1005.8
20260506230016 60 159 1.0 8.0 0.02 0.32 0.32 91 1005.8
20260506225503 60 245 1.0 8.0 0.02 0.32 0.32 91 1005.8
20260506225004 60 238 0.0 9.0 0.03 0.32 0.32 91 1005.8
20260506224518 60 144 1.0 9.0 0.03 0.31 0.31 92 1005.9
20260506224007 60 130 3.0 9.0 0.04 0.31 0.31 91 1005.9
20260506223508 60 199 2.0 5.0 0.04 0.31 0.31 91 1006.0
20260506223022 60 136 1.0 6.0 0.04 0.31 0.31 91 1006.0
20260506222511 60 163 3.0 6.0 0.05 0.31 0.31 91 1006.1
20260506222011 60 204 1.0 5.0 0.06 0.31 0.31 91 1006.1
20260506221507 60 145 1.0 2.0 0.07 0.31 0.31 91 1006.1
20260506221003 60 126 0.0 4.0 0.07 0.31 0.31 91 1006.1
20260506220502 60 136 0.0 4.0 0.08 0.31 0.31 91 1006.1
20260506220012 60 156 1.0 9.0 0.08 0.30 0.30 91 1006.3
20260506215504 60 126 2.0 9.0 0.09 0.30 0.30 91 1006.4
20260506215007 60 130 3.0 7.0 0.09 0.29 0.29 91 1006.4
20260506214519 60 53 1.0 8.0 0.09 0.28 0.28 91 1006.3
20260506214007 60 217 1.0 8.0 0.09 0.27 0.27 91 1006.4
20260506213506 60 192 1.0 8.0 0.10 0.27 0.27 91 1006.5
20260506213020 60 139 2.0 10.0 0.12 0.27 0.27 91 1006.4
20260506212509 60 159 2.0 10.0 0.12 0.26 0.26 91 1006.7
20260506212010 60 184 1.0 8.0 0.12 0.25 0.25 91 1006.6
20260506211530 61 105 1.0 8.0 0.11 0.24 0.24 91 1006.7
20260506211010 61 117 3.0 8.0 0.12 0.24 0.24 91 1006.6
20260506210509 61 147 1.0 8.0 0.12 0.23 0.23 91 1006.7
20260506210013 61 178 1.0 8.0 0.11 0.22 0.22 91 1006.7
20260506205502 61 147 2.0 4.0 0.10 0.21 0.21 91 1006.7
20260506205005 61 108 2.0 5.0 0.09 0.20 0.20 91 1006.8
20260506204516 61 84 0.0 5.0 0.08 0.19 0.19 91 1006.8
20260506204007 61 187 1.0 5.0 0.08 0.18 0.18 91 1006.9
20260506203503 61 170 0.0 4.0 0.07 0.17 0.17 91 1007.0
20260506203021 62 128 1.0 4.0 0.06 0.15 0.15 91 1007.0
20260506202505 62 135 0.0 2.0 0.05 0.14 0.14 91 1007.1
20260506202011 62 171 0.0 2.0 0.04 0.13 0.13 91 1006.9
20260506201527 62 138 0.0 2.0 0.05 0.13 0.13 91 1006.9
20260506201009 62 125 0.0 2.0 0.05 0.12 0.12 91 1006.9
20260506200506 62 178 0.0 2.0 0.04 0.11 0.11 91 1006.9
20260506200026 62 119 0.0 2.0 0.05 0.11 0.11 91 1006.8
20260506195512 62 153 0.0 2.0 0.05 0.11 0.11 90 1006.8
20260506195015 62 175 0.0 2.0 0.06 0.11 0.11 90 1007.0
20260506194514 62 130 0.0 2.0 0.06 0.11 0.11 90 1006.9
20260506194007 62 128 0.0 2.0 0.07 0.10 0.10 90 1006.8
20260506193503 62 125 0.0 2.0 0.07 0.10 0.10 90 1006.9
20260506193019 62 143 0.0 2.0 0.07 0.09 0.09 89 1007.0
20260506192507 62 144 0.0 2.0 0.07 0.09 0.09 89 1007.1
20260506192007 62 109 0.0 2.0 0.08 0.09 0.09 89 1007.1
20260506191523 62 40 0.0 2.0 0.08 0.08 0.08 89 1007.3
20260506191007 62 27 0.0 2.0 0.07 0.07 0.07 89 1007.2
20260506190506 62 51 0.0 2.0 0.07 0.07 0.07 88 1007.3
20260506190028 62 14 0.0 2.0 0.06 0.06 0.06 88 1007.4
20260506185511 62 60 0.0 2.0 0.06 0.06 0.06 87 1007.3
20260506185009 63 265 0.0 2.0 0.05 0.05 0.05 87 1007.6
20260506184528 63 290 0.0 2.0 0.05 0.05 0.05 86 1007.5
20260506184008 63 19 0.0 2.0 0.03 0.03 0.03 84 1007.0
20260506183510 64 321 1.0 2.0 0.03 0.03 0.03 83 1007.1
20260506183018 65 352 1.0 10.0 0.02 0.02 0.02 77 1007.0
20260506182503 67 205 2.0 10.0 0.02 0.02 0.02 72 1006.9
20260506182007 68 78 1.0 9.0 0.01 0.01 0.01 68 1007.0
20260506181521 70 166 3.0 10.0 0.00 0.00 0.00 61 1006.9
20260506181008 71 167 3.0 21.0 0.00 0.00 0.00 59 1006.8
20260506180508 71 9 1.0 21.0 0.00 0.00 0.00 59 1006.6
20260506180028 72 178 3.0 13.0 0.00 0.00 0.00 56 1006.5
20260506175507 72 131 5.0 9.0 0.00 0.00 0.00 55 1006.5
20260506175009 72 196 1.0 8.0 0.00 0.00 0.00 55 1006.6
20260506174527 72 191 2.0 10.0 0.00 0.00 0.00 55 1006.6
20260506174012 72 168 3.0 11.0 0.00 0.00 0.00 54 1006.7
20260506173510 73 277 3.0 11.0 0.00 0.00 0.00 54 1006.7
20260506173030 73 217 1.0 13.0 0.00 0.00 0.00 56 1006.8
20260506172508 72 167 2.0 13.0 0.00 0.00 0.00 57 1006.9
20260506172008 72 265 4.0 13.0 0.00 0.00 0.00 56 1007.1
20260506171520 72 145 2.0 12.0 0.00 0.00 0.00 58 1007.0
20260506171007 72 193 1.0 4.0 0.00 0.00 0.00 58 1007.1
20260506170507 72 157 1.0 4.0 0.00 0.00 0.00 60 1007.1
20260506170008 72 142 1.0 7.0 0.00 0.00 0.00 59 1007.1
20260506165502 71 174 2.0 7.0 0.00 0.00 0.00 61 1007.2
20260506165007 71 162 0.0 7.0 0.00 0.00 0.00 62 1007.4
20260506164508 71 133 1.0 6.0 0.00 0.00 0.00 61 1007.4
20260506164003 71 184 2.0 6.0 0.00 0.00 0.00 61 1007.5
20260506163502 71 170 2.0 7.0 0.00 0.00 0.00 61 1007.6
20260506163013 71 190 2.0 7.0 0.00 0.00 0.00 60 1007.7
20260506162507 71 134 1.0 6.0 0.00 0.00 0.00 62 1007.8
20260506162010 71 121 2.0 6.0 0.00 0.00 0.00 61 1007.8
20260506161522 71 218 2.0 5.0 0.00 0.00 0.00 59 1008.0
20260506161011 71 219 1.0 5.0 0.00 0.00 0.00 59 1008.2
20260506160508 71 27 2.0 14.0 0.00 0.00 0.00 59 1008.1
20260506160023 71 173 3.0 14.0 0.00 0.00 0.00 61 1008.3
20260506155509 71 121 1.0 11.0 0.00 0.00 0.00 62 1008.4
20260506155007 70 227 1.0 11.0 0.00 0.00 0.00 62 1008.5
20260506154508 70 139 3.0 11.0 0.00 0.00 0.00 62 1008.6
20260506154003 70 125 3.0 7.0 0.00 0.00 0.00 63 1008.7
20260506153503 70 203 2.0 11.0 0.00 0.00 0.00 63 1008.8
20260506153011 70 187 4.0 11.0 0.00 0.00 0.00 62 1008.8
20260506152503 69 105 3.0 9.0 0.00 0.00 0.00 63 1008.9
20260506152004 69 215 2.0 8.0 0.00 0.00 0.00 63 1008.9
20260506151516 69 127 2.0 8.0 0.00 0.00 0.00 63 1008.7
20260506151008 70 207 2.0 9.0 0.00 0.00 0.00 64 1008.8
20260506150505 69 74 2.0 9.0 0.00 0.00 0.00 65 1009.0
20260506150020 69 131 0.0 7.0 0.00 0.00 0.00 66 1009.0
20260506145512 69 190 2.0 7.0 0.00 0.00 0.00 66 1009.0
20260506145010 69 133 3.0 7.0 0.00 0.00 0.00 66 1008.8
20260506144536 69 281 1.0 9.0 0.00 0.00 0.00 65 1008.7
20260506144010 69 273 2.0 9.0 0.00 0.00 0.00 64 1008.8
20260506143504 69 169 2.0 7.0 0.00 0.00 0.00 67 1008.9
20260506143010 69 177 3.0 7.0 0.00 0.00 0.00 65 1008.9
20260506142505 68 105 1.0 4.0 0.00 0.00 0.00 67 1008.8
20260506142004 68 254 1.0 4.0 0.00 0.00 0.00 67 1008.7
20260506141516 68 139 1.0 11.0 0.00 0.00 0.00 68 1008.6
20260506141009 67 99 1.0 11.0 0.00 0.00 0.00 68 1008.7
20260506140504 67 163 0.0 5.0 0.00 0.00 0.00 69 1008.7
20260506140029 67 121 0.0 8.0 0.00 0.00 0.00 69 1008.7
20260506135507 66 284 1.0 8.0 0.00 0.00 0.00 69 1008.8
20260506135009 66 192 1.0 7.0 0.00 0.00 0.00 70 1008.9
20260506134530 66 219 2.0 7.0 0.00 0.00 0.00 69 1008.9
20260506134010 66 162 1.0 3.0 0.00 0.00 0.00 70 1009.0
20260506133509 66 131 1.0 6.0 0.00 0.00 0.00 70 1009.1
20260506133025 66 225 2.0 6.0 0.00 0.00 0.00 70 1009.1
20260506132511 66 173 2.0 6.0 0.00 0.00 0.00 70 1009.0
20260506132003 66 279 1.0 9.0 0.00 0.00 0.00 70 1008.9
20260506131512 66 222 2.0 9.0 0.00 0.00 0.00 70 1008.9
20260506131003 66 138 1.0 12.0 0.00 0.00 0.00 70 1009.1
20260506130508 66 118 2.0 12.0 0.00 0.00 0.00 71 1009.2
20260506130016 65 134 2.0 9.0 0.00 0.00 0.00 71 1009.2
20260506125506 65 286 2.0 9.0 0.00 0.00 0.00 71 1009.2
20260506125005 65 127 1.0 7.0 0.00 0.00 0.00 71 1009.1
20260506124522 65 140 2.0 7.0 0.00 0.00 0.00 71 1009.0
20260506124009 65 171 1.0 9.0 0.00 0.00 0.00 71 1009.0
20260506123509 65 130 3.0 9.0 0.00 0.00 0.00 71 1009.0
20260506123036 65 136 1.0 8.0 0.00 0.00 0.00 71 1009.2
20260506122510 65 221 1.0 8.0 0.00 0.00 0.00 71 1009.3
20260506122010 65 250 0.0 2.0 0.00 0.00 0.00 72 1009.2
20260506121526 64 228 0.0 4.0 0.00 0.00 0.00 73 1009.2
20260506121013 63 189 2.0 6.0 0.00 0.00 0.00 73 1009.2
20260506120503 63 131 1.0 8.0 0.00 0.00 0.00 73 1009.3
20260506120024 63 266 1.0 8.0 0.00 0.00 0.00 73 1009.3
20260506115513 63 169 1.0 6.0 0.00 0.00 0.00 74 1009.4
20260506115008 63 182 1.0 3.0 0.00 0.00 0.00 74 1009.4
20260506114522 63 184 0.0 8.0 0.00 0.00 0.00 74 1009.5
20260506114014 63 158 3.0 8.0 0.00 0.00 0.00 73 1009.4
20260506113508 63 207 1.0 4.0 0.00 0.00 0.00 74 1009.4
20260506113033 63 195 1.0 4.0 0.00 0.00 0.00 74 1009.5
20260506112508 62 166 1.0 4.0 0.00 0.00 0.00 74 1009.6
20260506112002 62 179 0.0 4.0 0.00 0.00 0.00 74 1009.8
20260506111506 62 186 0.0 4.0 0.00 0.00 0.00 74 1009.8
20260506111002 62 141 1.0 7.0 0.00 0.00 0.00 74 1009.9
20260506110504 62 208 0.0 10.0 0.00 0.00 0.00 75 1009.7
20260506110003 61 145 0.0 10.0 0.00 0.00 0.00 75 1009.9
20260506105502 61 165 1.0 2.0 0.00 0.00 0.00 75 1010.0
20260506105004 61 139 0.0 7.0 0.00 0.00 0.00 75 1009.9
20260506104504 61 124 2.0 7.0 0.00 0.00 0.00 75 1009.7
20260506104003 61 194 0.0 4.0 0.00 0.00 0.00 75 1009.7
20260506103503 61 166 1.0 10.0 0.00 0.00 0.00 75 1009.8
20260506103004 61 173 1.0 10.0 0.00 0.00 0.00 75 1009.9
20260506102503 61 114 2.0 10.0 0.00 0.00 0.00 75 1009.8
20260506102004 61 106 2.0 7.0 0.00 0.00 0.00 75 1009.7
20260506101505 61 146 0.0 6.0 0.00 0.00 0.00 75 1009.9
20260506101004 61 234 0.0 6.0 0.00 0.00 0.00 75 1009.9
20260506100503 61 207 1.0 4.0 0.00 0.00 0.00 75 1009.8
20260506100015 61 165 0.0 2.0 0.00 0.00 0.00 74 1009.8
20260506095502 61 191 0.0 3.0 0.00 0.00 0.00 74 1009.7
20260506095003 61 169 1.0 4.0 0.00 0.00 0.00 74 1009.5
20260506094508 61 187 2.0 4.0 0.00 0.00 0.00 74 1009.6
20260506094004 61 113 0.0 3.0 0.00 0.00 0.00 74 1009.7
20260506093503 61 144 1.0 3.0 0.00 0.00 0.00 74 1009.7
20260506093005 61 110 0.0 2.0 0.00 0.00 0.00 74 1009.7
20260506092503 61 183 1.0 7.0 0.00 0.00 0.00 74 1009.6
20260506092003 61 232 1.0 7.0 0.00 0.00 0.00 74 1009.6
20260506091506 61 99 2.0 7.0 0.00 0.00 0.00 72 1009.6
20260506091007 61 193 1.0 7.0 0.00 0.00 0.00 73 1009.6
20260506090504 61 210 1.0 7.0 0.00 0.00 0.00 73 1009.5
20260506090009 61 143 0.0 9.0 0.00 0.00 0.00 73 1009.5
20260506085506 61 177 1.0 8.0 0.00 0.00 0.00 73 1009.5
20260506085004 61 173 0.0 6.0 0.00 0.00 0.00 72 1009.5
20260506084510 61 111 0.0 2.0 0.00 0.00 0.00 72 1009.5
20260506084004 61 150 0.0 5.0 0.00 0.00 0.00 72 1009.4
20260506083504 61 208 1.0 5.0 0.00 0.00 0.00 72 1009.4
20260506083007 61 153 2.0 6.0 0.00 0.00 0.00 72 1009.3
20260506082506 61 169 1.0 6.0 0.00 0.00 0.00 72 1009.4
20260506082004 61 173 0.0 2.0 0.00 0.00 0.00 71 1009.3
20260506081514 61 155 0.0 2.0 0.00 0.00 0.00 71 1009.3
20260506081003 61 114 0.0 6.0 0.00 0.00 0.00 70 1009.2
20260506080503 62 164 0.0 6.0 0.00 0.00 0.00 70 1009.2
20260506073504 62 169 1.0 5.0 0.00 0.00 0.00 69 1008.7
20260506073012 62 206 0.0 5.0 0.00 0.00 0.00 68 1008.7
20260506072503 62 129 0.0 3.0 0.00 0.00 0.00 68 1008.7
20260506072004 62 145 1.0 5.0 0.00 0.00 0.00 68 1008.7
20260506071512 62 193 1.0 5.0 0.00 0.00 0.00 67 1008.7
20260506071003 62 125 0.0 6.0 0.00 0.00 0.00 67 1008.6
20260506070504 63 194 1.0 6.0 0.00 0.00 0.00 66 1008.5
20260506062504 62 105 0.0 2.0 0.00 0.00 0.00 66 1008.7
20260506062008 62 148 0.0 2.0 0.00 0.00 0.00 67 1008.7
20260506061514 62 142 1.0 2.0 0.00 0.00 0.00 66 1008.8